Location: Bannatyne
(13.0833°N, 59.5333°W)
Time: 14:10:22
(UTC+00:00)

Vanguard 2 Rocket - Pass Details

Date: 22 January 2020
Orbit: 554 x 3326 km, 32.9° (Epoch: 04 April)

Event Time Altitude Azimuth Distance (km) Brightness Sun altitude
Rises 14:43:44 0° 308° (NW) 4,557 10.1 51.0°
Reaches altitude 10° 14:46:19 10° 312° (NW) 3,873 9.9 51.3°
Maximum altitude 14:57:15 62° 32° (NNE) 2,602 9.8 52.7°
Drops below altitude 10° 15:15:22 10° 109° (ESE) 6,117 11.6 54.6°
Sets 15:20:39 0° 113° (ESE) 7,274 11.8 55.1°
